[[{"header":{"parameterUnit":"m.s-1","parameterCategory":2,"la1":30.2991,"la2":30.254,"lo1":-89.0895,"lo2":-89.0444,"dy":0.0017,"dx":0.0017,"nx":28,"ny":28,"refTime":"2024-11-30T03:00:00:Z","depth":"0","parameterNumber":2,"parameterNumberName":"U-component_of_CURRENTS"},"data":[0,0,0,0,0,0,0,0,0,0,0,0,0,0,0,0,0,0,0,0,0,0,0,0,0,0,0,0,0,0,0,0,0,0,0,0,0,0,0,0,0,0,0,0,0,0,0,0,0,0,0,0,0,0,0,0,0,0,-0.26,-0.26,0,-0.2619,-0.2619,-0.2619,-0.2612,-0.2612,-0.2612,-0.2612,-0.2615,-0.2615,-0.2615,0,0,0,0,0,0,0,0,0,0,0,0,0,-0.2539,-0.254,-0.26,-0.26,-0.2601,-0.2619,-0.2619,-0.2619,-0.2612,-0.2612,-0.2612,-0.2611,-0.2614,-0.2615,-0.2615,0,0,0,0,0,0,0,0,0,0,0,0,0,-0.256,-0.254,-0.26,-0.2601,-0.2602,-0.2619,-0.2619,-0.2619,-0.2612,-0.2612,-0.2612,-0.2611,-0.2614,-0.2615,-0.2615,-0.2624,0,0,-0.2616,-0.2617,0,0,0,0,0,0,0,0,-0.2559,-0.2562,-0.2601,-0.2601,-0.2602,-0.2615,-0.2598,-0.262,-0.2612,-0.2606,-0.2612,-0.2611,-0.2615,-0.2615,-0.2616,-0.2624,-0.2624,-0.2616,-0.2617,-0.2617,-0.2617,0,0,0,0,0,0,0,-0.2557,-0.2561,-0.2605,-0.2601,-0.2602,-0.2594,-0.2597,-0.2602,-0.261,-0.2606,-0.2607,-0.2612,-0.2615,-0.2616,-0.2616,-0.2624,-0.2616,-0.2617,-0.2617,-0.2617,-0.2601,-0.2601,0,0,0,0,0,0,-0.2561,-0.256,-0.2604,-0.2606,-0.2582,-0.2596,-0.2599,-0.2609,-0.261,-0.2611,-0.2613,-0.2612,-0.2615,-0.2616,-0.2617,-0.2616,-0.2617,-0.2617,-0.2617,-0.2602,-0.2601,-0.2601,0,0,0,0,0,0,-0.256,-0.2565,-0.2604,-0.2585,-0.2589,-0.2598,-0.2609,-0.261,-0.2611,-0.2615,-0.2615,-0.2614,-0.2615,-0.2616,-0.2612,-0.2616,-0.2617,-0.2618,-0.2603,-0.2602,-0.2601,-0.2621,0,0,0,0,0,0,-0.2558,-0.2565,-0.2567,-0.2585,-0.2591,-0.2611,-0.261,-0.261,-0.2616,-0.2616,-0.2616,-0.2616,-0.2615,-0.2611,-0.2612,-0.2617,-0.2618,-0.2604,-0.2602,-0.2601,-0.2621,-0.2621,-0.262,0,0,0,0,0,-0.2556,-0.2561,-0.2567,-0.2572,-0.2596,-0.2611,-0.2613,-0.2616,-0.2617,-0.2616,-0.2612,-0.2616,-0.2604,-0.2611,-0.2613,-0.2617,-0.2604,-0.2603,-0.2601,-0.2621,-0.2621,-0.262,0,0,0,0,0,0,-0.2536,-0.2562,-0.2569,-0.2582,-0.2595,-0.2611,-0.261,-0.2618,-0.2615,-0.2612,-0.2614,-0.2613,-0.261,-0.2606,-0.2614,-0.2605,-0.2603,-0.2601,-0.2617,-0.2617,-0.2617,-0.262,-0.2618,0,0,0,0,0,-0.2535,-0.2541,-0.2568,-0.2575,-0.2584,-0.2598,-0.2604,-0.261,-0.2614,-0.2613,-0.2613,-0.2608,-0.2605,-0.2605,-0.26,-0.2601,-0.2589,-0.2601,-0.26,-0.26,-0.2602,-0.2589,-0.2588,-0.2596,-0.2596,-0.2596,0,0,-0.2527,-0.2542,-0.2545,-0.257,-0.258,-0.2595,-0.26,-0.2609,-0.2618,-0.2614,-0.2615,-0.2609,-0.2604,-0.2601,-0.2599,-0.2599,-0.2587,-0.2598,-0.2599,-0.26,-0.2587,-0.2587,-0.2586,-0.2595,-0.2595,-0.2595,0,0,-0.2516,-0.2532,-0.2536,-0.2552,-0.2572,-0.2586,-0.2591,-0.2609,-0.2611,-0.2615,-0.2611,-0.2605,-0.2604,-0.26,-0.2599,-0.2593,-0.2586,-0.2589,-0.2596,-0.2583,-0.2583,-0.2583,-0.2554,-0.2551,-0.259,-0.259,-0.259,0,-0.2505,-0.252,-0.2537,-0.2551,-0.2564,-0.2584,-0.2597,-0.2606,-0.2617,-0.2619,-0.2614,-0.2606,-0.2604,-0.2604,-0.2599,-0.2595,-0.258,-0.2603,-0.2585,-0.2584,-0.2584,-0.2554,-0.255,-0.2591,-0.2591,-0.2591,-0.2591,0,-0.2502,-0.2517,-0.2521,-0.2547,-0.2563,-0.2575,-0.2601,-0.261,-0.2616,-0.2624,-0.2621,-0.2612,-0.2608,-0.2605,-0.2604,-0.2598,-0.2585,-0.2588,-0.2591,-0.2584,-0.2553,-0.2549,-0.2592,-0.2592,-0.2591,-0.2591,0,0,-0.2467,-0.2511,-0.2511,-0.2527,-0.2564,-0.2576,-0.2597,-0.2619,-0.2629,-0.2629,-0.2635,-0.2627,-0.2622,-0.2618,-0.2613,-0.2603,-0.2583,-0.2595,-0.2594,-0.2576,-0.2542,-0.2436,-0.2421,-0.2587,-0.2587,-0.2586,-0.2518,0,-0.2458,-0.248,-0.2508,-0.253,-0.2546,-0.258,-0.2598,-0.262,-0.2632,-0.2642,-0.2636,-0.2636,-0.2628,-0.2624,-0.2615,-0.26,-0.2575,-0.2601,-0.2543,-0.2541,-0.2456,-0.2414,-0.2306,-0.2228,-0.2514,-0.2513,-0.2513,0,-0.244,-0.2462,-0.248,-0.2528,-0.2538,-0.2554,-0.2589,-0.261,-0.2635,-0.2645,-0.2647,-0.2646,-0.2639,-0.2628,-0.2591,-0.2609,-0.2571,-0.2551,-0.2548,-0.2441,-0.2427,-0.2282,-0.221,-0.2196,-0.2506,-0.2507,-0.2507,0,-0.2394,-0.244,-0.2453,-0.2468,-0.2524,-0.2535,-0.2564,-0.2599,-0.2614,-0.2642,-0.2645,-0.2648,-0.2634,-0.2609,-0.2564,-0.2581,-0.251,-0.2529,-0.2391,-0.2383,-0.2274,-0.2256,-0.2188,-0.2481,-0.2481,-0.2482,-0.2482,0,-0.2366,-0.2375,-0.2431,-0.2436,-0.2453,-0.2506,-0.2522,-0.2556,-0.2593,-0.2593,-0.2635,-0.2619,-0.2628,-0.259,-0.256,-0.2448,-0.25,-0.2373,-0.2352,-0.2273,-0.2257,-0.2226,-0.2254,-0.2479,-0.248,-0.248,-0.2481,0,-0.2298,-0.2339,-0.2355,-0.2411,-0.2426,-0.2434,-0.2488,-0.2495,-0.255,-0.255,-0.2556,-0.2589,-0.2535,-0.2515,-0.2464,-0.2413,-0.2286,-0.2284,-0.2179,-0.2145,-0.1997,-0.2029,-0.1925,-0.1872,-0.2124,-0.212,-0.2118,0,-0.226,-0.226,-0.2313,-0.2315,-0.2333,-0.2361,-0.237,-0.2449,-0.2457,-0.2509,-0.2491,-0.247,-0.2403,-0.2298,-0.2218,-0.2118,-0.2141,-0.1968,-0.1973,-0.1949,-0.1973,-0.2004,-0.1971,-0.1839,-0.1834,-0.183,-0.1827,0,-0.2175,-0.2194,-0.2204,-0.2213,-0.2222,-0.2239,-0.2263,-0.2268,-0.2343,-0.2343,-0.2317,-0.2276,-0.2183,-0.2033,-0.1922,-0.1861,-0.1912,-0.1882,-0.1892,-0.1757,-0.1753,-0.1704,-0.1928,-0.1793,-0.1796,-0.1799,-0.18,-0.1802,-0.209,-0.2078,-0.2088,-0.2083,-0.2097,-0.2082,-0.2042,-0.2078,-0.2063,-0.2027,-0.2089,-0.1991,-0.1913,-0.173,-0.1664,-0.1539,-0.1623,-0.1505,-0.155,-0.1587,-0.1516,-0.1644,-0.1466,-0.1467,-0.1469,-0.147,-0.1471,0,-0.1968,-0.1962,-0.1954,-0.1934,-0.1888,-0.1946,-0.1933,-0.1867,-0.179,-0.1804,-0.1747,-0.166,-0.1502,-0.1462,-0.1336,-0.1252,-0.1244,-0.1237,-0.1285,-0.1269,-0.1397,-0.1364,-0.1113,-0.1113,-0.1113,-0.1113,-0.1113,-0.1113,-0.1899,-0.1842,-0.184,-0.1718,-0.1701,-0.1588,-0.1547,-0.1484,-0.1463,-0.136,-0.1334,-0.1354,-0.1333,-0.1352,-0.1221,-0.1146,-0.1145,-0.1078,-0.1134,-0.1265,-0.1295,-0.1325,-0.13,-0.1038,-0.1039,-0.0951,-0.0951,-0.0951]},{"header":{"parameterUnit":"m.s-1","parameterCategory":2,"la1":30.2991,"la2":30.254,"lo1":-89.0895,"lo2":-89.0444,"dy":0.0017,"dx":0.0017,"nx":28,"ny":28,"refTime":"2024-11-30T03:00:00:Z","depth":"0","parameterNumber":3,"parameterNumberName":"V-component_of_CURRENTS"},"data":[0,0,0,0,0,0,0,0,0,0,0,0,0,0,0,0,0,0,0,0,0,0,0,0,0,0,0,0,0,0,0,0,0,0,0,0,0,0,0,0,0,0,0,0,0,0,0,0,0,0,0,0,0,0,0,0,0,0,-0.0649,-0.0648,0,-0.0565,-0.0564,-0.0563,-0.051,-0.051,-0.051,-0.051,-0.0368,-0.0365,-0.0361,0,0,0,0,0,0,0,0,0,0,0,0,0,-0.0692,-0.0692,-0.0649,-0.0648,-0.0647,-0.0565,-0.0564,-0.0563,-0.051,-0.051,-0.051,-0.0509,-0.0369,-0.0365,-0.0361,0,0,0,0,0,0,0,0,0,0,0,0,0,-0.0646,-0.0692,-0.065,-0.0612,-0.0608,-0.0565,-0.0564,-0.0562,-0.051,-0.051,-0.051,-0.0509,-0.0371,-0.0366,-0.036,-0.0333,0,0,-0.0344,-0.0341,0,0,0,0,0,0,0,0,-0.0649,-0.0645,-0.0619,-0.0615,-0.061,-0.0549,-0.0527,-0.0483,-0.051,-0.0546,-0.051,-0.0509,-0.0424,-0.0414,-0.0398,-0.0326,-0.032,-0.0343,-0.034,-0.0338,-0.0336,0,0,0,0,0,0,0,-0.0652,-0.0648,-0.0615,-0.0618,-0.0612,-0.0575,-0.0568,-0.0518,-0.0486,-0.0543,-0.0539,-0.0532,-0.0421,-0.0404,-0.0395,-0.0318,-0.0343,-0.0339,-0.0335,-0.0333,-0.0211,-0.0211,0,0,0,0,0,0,-0.0669,-0.0651,-0.0618,-0.0612,-0.063,-0.0574,-0.0567,-0.0568,-0.0488,-0.0476,-0.0532,-0.053,-0.0413,-0.0401,-0.0389,-0.0358,-0.0338,-0.0333,-0.033,-0.0211,-0.0211,-0.0211,0,0,0,0,0,0,-0.0671,-0.0667,-0.0621,-0.063,-0.0622,-0.0575,-0.0575,-0.0566,-0.0549,-0.048,-0.0467,-0.0525,-0.0412,-0.0397,-0.0349,-0.0351,-0.033,-0.0325,-0.0211,-0.0211,-0.0211,-0.029,0,0,0,0,0,0,-0.0672,-0.0669,-0.0675,-0.0632,-0.0622,-0.0601,-0.0575,-0.0565,-0.0546,-0.0541,-0.0469,-0.0456,-0.0411,-0.0357,-0.0343,-0.0344,-0.0321,-0.0211,-0.0211,-0.0211,-0.0288,-0.0293,-0.0298,0,0,0,0,0,-0.0674,-0.0684,-0.0676,-0.0672,-0.0633,-0.0601,-0.0593,-0.0557,-0.0546,-0.054,-0.0493,-0.0458,-0.0347,-0.0353,-0.0337,-0.0335,-0.0211,-0.0211,-0.0211,-0.0286,-0.0292,-0.0297,0,0,0,0,0,0,-0.0702,-0.0679,-0.0669,-0.0671,-0.0642,-0.0593,-0.0586,-0.0563,-0.0522,-0.0518,-0.0455,-0.0438,-0.0399,-0.0354,-0.0362,-0.03,-0.0274,-0.0271,-0.0336,-0.0342,-0.0346,-0.0366,-0.0317,0,0,0,0,0,-0.0714,-0.0719,-0.0684,-0.0685,-0.0675,-0.0633,-0.0616,-0.0593,-0.0552,-0.0534,-0.0484,-0.0431,-0.0386,-0.0355,-0.0309,-0.027,-0.023,-0.0259,-0.0264,-0.0269,-0.0273,-0.0229,-0.0231,-0.0211,-0.0211,-0.0211,0,0,-0.0724,-0.0713,-0.0714,-0.0692,-0.0667,-0.0659,-0.0622,-0.0603,-0.0592,-0.0524,-0.0494,-0.0447,-0.0381,-0.0343,-0.0321,-0.0305,-0.025,-0.0269,-0.0273,-0.0275,-0.023,-0.0232,-0.0234,-0.0211,-0.0211,-0.0211,0,0,-0.0748,-0.0738,-0.0751,-0.0733,-0.0706,-0.068,-0.0679,-0.0634,-0.0612,-0.0577,-0.053,-0.0487,-0.0413,-0.037,-0.0338,-0.0339,-0.0282,-0.0323,-0.0355,-0.0314,-0.0315,-0.0316,-0.0258,-0.0253,-0.032,-0.032,-0.032,0,-0.0762,-0.0775,-0.0747,-0.0752,-0.0745,-0.0695,-0.0703,-0.0671,-0.0616,-0.06,-0.0578,-0.0481,-0.0427,-0.0382,-0.0383,-0.0351,-0.0313,-0.0342,-0.0322,-0.0322,-0.0322,-0.0262,-0.0256,-0.0324,-0.0323,-0.0323,-0.0323,0,-0.0794,-0.0803,-0.0807,-0.0803,-0.0789,-0.0786,-0.0745,-0.0726,-0.0694,-0.0658,-0.0611,-0.0538,-0.0482,-0.0456,-0.0417,-0.0387,-0.0356,-0.034,-0.0313,-0.0329,-0.0264,-0.0256,-0.0329,-0.0328,-0.0327,-0.0326,0,0,-0.0826,-0.0832,-0.0833,-0.0847,-0.0819,-0.0813,-0.0798,-0.077,-0.0761,-0.0702,-0.0681,-0.0604,-0.0566,-0.0527,-0.0471,-0.0428,-0.0387,-0.0387,-0.0383,-0.034,-0.0282,-0.0227,-0.0212,-0.0372,-0.0372,-0.0371,-0.0235,0,-0.086,-0.0896,-0.0881,-0.0906,-0.0921,-0.0881,-0.0872,-0.0838,-0.0795,-0.0759,-0.0683,-0.0641,-0.0591,-0.0565,-0.0517,-0.0417,-0.0371,-0.0424,-0.0264,-0.0259,-0.0217,-0.0203,-0.0172,-0.0045,-0.0227,-0.0225,-0.0224,0,-0.0897,-0.0918,-0.0957,-0.0971,-0.0973,-0.0975,-0.0959,-0.0943,-0.0878,-0.0843,-0.0787,-0.0723,-0.0644,-0.0607,-0.0453,-0.049,-0.0398,-0.0321,-0.0314,-0.0231,-0.0189,-0.0059,-0.0023,0.0097,-0.0212,-0.0213,-0.0214,0,-0.0944,-0.097,-0.1009,-0.1013,-0.1015,-0.1023,-0.1017,-0.097,-0.0956,-0.0896,-0.0868,-0.0774,-0.0706,-0.06,-0.0431,-0.0446,-0.0253,-0.0253,-0.0115,-0.0109,-0.0034,-0.0023,0.0127,-0.0159,-0.0159,-0.0159,-0.016,0,-0.0992,-0.102,-0.1037,-0.106,-0.11,-0.1078,-0.1096,-0.1072,-0.1027,-0.0997,-0.0917,-0.0855,-0.0703,-0.0567,-0.0441,-0.0236,-0.0257,-0.0113,-0.0072,-0.0058,-0.0051,0.0096,0.0136,-0.0154,-0.0155,-0.0156,-0.0157,0,-0.1039,-0.105,-0.1097,-0.1118,-0.1127,-0.1156,-0.1157,-0.1159,-0.1108,-0.1063,-0.1045,-0.0903,-0.0719,-0.0549,-0.034,-0.0229,0.0027,0.0014,0.0031,0.0071,0.0287,0.032,0.0513,0.0582,0.0176,0.0178,0.018,0,-0.1067,-0.1098,-0.1147,-0.1178,-0.1191,-0.1223,-0.1238,-0.1208,-0.1193,-0.1074,-0.1046,-0.0868,-0.0712,-0.0383,-0.0167,0.0069,0.0149,0.023,0.0198,0.0316,0.0383,0.0398,0.0442,0.0277,0.028,0.0282,0.0283,0,-0.1115,-0.1132,-0.1172,-0.1239,-0.1273,-0.1306,-0.1313,-0.1307,-0.1239,-0.1166,-0.1015,-0.0882,-0.056,-0.0268,0.0029,0.0167,0.0316,0.0279,0.0398,0.0475,0.0505,0.0586,0.018,0.0301,0.03,0.0298,0.0297,0.0297,-0.1141,-0.1185,-0.1234,-0.1294,-0.1335,-0.1355,-0.1351,-0.1318,-0.1259,-0.1096,-0.0982,-0.0723,-0.0358,0.0071,0.0224,0.0538,0.049,0.0623,0.0656,0.0663,0.072,0.036,0.0523,0.0522,0.0522,0.0522,0.0521,0,-0.1166,-0.1215,-0.1281,-0.1342,-0.1378,-0.139,-0.1372,-0.1316,-0.1205,-0.1032,-0.0848,-0.0389,-0.0018,0.031,0.0726,0.0898,0.0917,0.0982,0.1006,0.1035,0.0726,0.0719,0.0937,0.0936,0.0936,0.0936,0.0936,0.0936,-0.1182,-0.1248,-0.1286,-0.1351,-0.1385,-0.1381,-0.135,-0.1237,-0.1092,-0.0758,-0.047,-0.0256,0.0195,0.0813,0.1189,0.1226,0.1353,0.1353,0.1417,0.1197,0.1165,0.1134,0.1139,0.144,0.1441,0.1711,0.1713,0.1716]}],[{"header":{"parameterUnit":"m.s-1","parameterCategory":2,"la1":30.2991,"la2":30.254,"lo1":-89.0895,"lo2":-89.0444,"dy":0.0017,"dx":0.0017,"nx":28,"ny":28,"refTime":"2024-11-30T03:00:00:Z","depth":"2","parameterNumber":2,"parameterNumberName":"U-component_of_CURRENTS"},"data":[0,0,0,0,0,0,0,0,0,0,0,0,0,0,0,0,0,0,0,0,0,0,0,0,0,0,0,0,0,0,0,0,0,0,0,0,0,0,0,0,0,0,0,0,0,0,0,0,0,0,0,0,0,0,0,0,0,0,-0.2381,-0.2382,0,-0.2396,-0.2396,-0.2396,-0.2382,-0.2382,-0.2381,-0.2381,-0.2377,-0.2377,-0.2377,0,0,0,0,0,0,0,0,0,0,0,0,0,-0.2334,-0.2335,-0.2381,-0.2382,-0.2382,-0.2396,-0.2396,-0.2396,-0.2382,-0.2382,-0.2381,-0.2381,-0.2377,-0.2377,-0.2377,0,0,0,0,0,0,0,0,0,0,0,0,0,-0.235,-0.2335,-0.2381,-0.2378,-0.2378,-0.2396,-0.2396,-0.2396,-0.2382,-0.2382,-0.2381,-0.2381,-0.2377,-0.2377,-0.2377,-0.239,0,0,-0.2378,-0.2379,0,0,0,0,0,0,0,0,-0.2349,-0.2352,-0.2378,-0.2379,-0.2379,-0.2388,-0.2378,-0.2394,-0.2382,-0.2379,-0.2381,-0.238,-0.2381,-0.2381,-0.2382,-0.239,-0.239,-0.2378,-0.2379,-0.2379,-0.2379,0,0,0,0,0,0,0,-0.2348,-0.2351,-0.2385,-0.2379,-0.2379,-0.2374,-0.2375,-0.238,-0.2381,-0.2379,-0.2378,-0.2383,-0.238,-0.2382,-0.2382,-0.239,-0.2378,-0.2379,-0.2379,-0.2379,-0.2391,-0.2392,0,0,0,0,0,0,-0.2352,-0.235,-0.2385,-0.2386,-0.2365,-0.2375,-0.2377,-0.2384,-0.2381,-0.2381,-0.2384,-0.2383,-0.2381,-0.2381,-0.2382,-0.2391,-0.2379,-0.2379,-0.2379,-0.2391,-0.2392,-0.2392,0,0,0,0,0,0,-0.2351,-0.2355,-0.2384,-0.2369,-0.2373,-0.2377,-0.2385,-0.2385,-0.2389,-0.2385,-0.2384,-0.2389,-0.2381,-0.2381,-0.2384,-0.2391,-0.2379,-0.238,-0.2391,-0.2391,-0.2392,-0.2414,0,0,0,0,0,0,-0.2349,-0.2354,-0.2358,-0.237,-0.2374,-0.2394,-0.2386,-0.2385,-0.2394,-0.2393,-0.239,-0.2388,-0.238,-0.2383,-0.2384,-0.2391,-0.238,-0.2391,-0.2391,-0.2392,-0.2413,-0.2415,-0.2416,0,0,0,0,0,-0.2347,-0.2353,-0.2358,-0.2362,-0.238,-0.2394,-0.2396,-0.2395,-0.2395,-0.2397,-0.2393,-0.2389,-0.2385,-0.2384,-0.2385,-0.2392,-0.2391,-0.2391,-0.2391,-0.2412,-0.2414,-0.2416,0,0,0,0,0,0,-0.2334,-0.2353,-0.2358,-0.237,-0.2383,-0.2393,-0.2394,-0.2401,-0.2401,-0.2399,-0.2394,-0.2392,-0.2396,-0.2392,-0.2391,-0.2395,-0.2386,-0.2387,-0.2402,-0.2404,-0.2405,-0.2402,-0.238,0,0,0,0,0,-0.2336,-0.2341,-0.2363,-0.2369,-0.2378,-0.239,-0.2395,-0.2399,-0.2404,-0.2403,-0.2402,-0.2399,-0.2399,-0.2399,-0.2396,-0.2404,-0.2388,-0.2407,-0.2409,-0.2411,-0.2408,-0.2395,-0.2396,-0.2393,-0.2393,-0.2393,0,0,-0.2331,-0.2342,-0.2345,-0.2367,-0.2375,-0.239,-0.2391,-0.2402,-0.2412,-0.2404,-0.241,-0.2407,-0.2402,-0.2405,-0.2406,-0.2402,-0.2401,-0.2411,-0.2412,-0.2409,-0.2396,-0.2396,-0.2396,-0.2393,-0.2393,-0.2393,0,0,-0.2324,-0.2338,-0.2342,-0.2357,-0.2376,-0.2388,-0.2395,-0.2412,-0.2415,-0.2426,-0.2419,-0.2418,-0.2423,-0.2416,-0.2415,-0.2426,-0.241,-0.2428,-0.2436,-0.2424,-0.2425,-0.2425,-0.2396,-0.2393,-0.243,-0.243,-0.243,0,-0.2317,-0.233,-0.2345,-0.2358,-0.2371,-0.239,-0.2403,-0.2414,-0.2427,-0.2431,-0.2428,-0.243,-0.2426,-0.2428,-0.243,-0.243,-0.2416,-0.2431,-0.2427,-0.2426,-0.2426,-0.2397,-0.2394,-0.2431,-0.2431,-0.2431,-0.243,0,-0.2317,-0.2331,-0.2336,-0.236,-0.2376,-0.2389,-0.2414,-0.2426,-0.2436,-0.2444,-0.2449,-0.2443,-0.2442,-0.2444,-0.2442,-0.244,-0.2428,-0.2431,-0.2422,-0.2428,-0.2396,-0.2393,-0.2432,-0.2432,-0.2432,-0.2431,0,0,-0.2287,-0.2328,-0.2329,-0.2343,-0.238,-0.2391,-0.2415,-0.2437,-0.2449,-0.2456,-0.2466,-0.2463,-0.2461,-0.2458,-0.2455,-0.2447,-0.2431,-0.244,-0.2439,-0.2413,-0.2393,-0.2298,-0.2284,-0.2436,-0.2436,-0.2436,-0.2369,0,-0.2281,-0.2303,-0.2329,-0.2351,-0.2367,-0.2399,-0.2419,-0.2442,-0.2458,-0.2472,-0.2469,-0.2474,-0.2467,-0.2468,-0.2459,-0.2446,-0.2423,-0.2447,-0.2391,-0.2388,-0.2304,-0.2277,-0.2115,-0.2034,-0.2365,-0.2364,-0.2364,0,-0.2267,-0.2287,-0.2308,-0.2351,-0.2362,-0.2379,-0.2415,-0.2437,-0.2465,-0.2478,-0.2485,-0.2487,-0.2482,-0.2473,-0.2437,-0.2456,-0.242,-0.2401,-0.2399,-0.2299,-0.2286,-0.2084,-0.2015,-0.2357,-0.2358,-0.2358,-0.2359,0,-0.2226,-0.227,-0.2285,-0.23,-0.2352,-0.2366,-0.2394,-0.2431,-0.2447,-0.2479,-0.2488,-0.2491,-0.2482,-0.2457,-0.2415,-0.2431,-0.2364,-0.238,-0.2252,-0.2245,-0.2088,-0.2067,-0.2334,-0.2334,-0.2334,-0.2334,-0.2334,0,-0.2203,-0.2213,-0.2267,-0.2273,-0.2293,-0.2342,-0.2362,-0.2395,-0.2436,-0.2439,-0.2481,-0.247,-0.2477,-0.2443,-0.2412,-0.2307,-0.2355,-0.2236,-0.2217,-0.2089,-0.207,-0.2341,-0.2343,-0.2332,-0.2332,-0.2333,-0.2333,0,-0.2143,-0.2182,-0.22,-0.2255,-0.227,-0.2281,-0.2336,-0.2345,-0.2402,-0.2407,-0.2416,-0.2447,-0.2395,-0.2377,-0.2326,-0.2277,-0.221,-0.2155,-0.1995,-0.1957,-0.2102,-0.2106,-0.2013,-0.2009,-0.2005,-0.2003,-0.2,0,-0.211,-0.2113,-0.2166,-0.217,-0.2191,-0.2221,-0.2232,-0.2308,-0.2318,-0.237,-0.2355,-0.2338,-0.2272,-0.2173,-0.2092,-0.1995,-0.2086,-0.1799,-0.1794,-0.2076,-0.2067,-0.2076,-0.2084,-0.1594,-0.1589,-0.1584,-0.1581,0,-0.2036,-0.2057,-0.2068,-0.2083,-0.2095,-0.2112,-0.2138,-0.2145,-0.2215,-0.2218,-0.2191,-0.2149,-0.2059,-0.188,-0.1777,-0.1712,-0.181,-0.1702,-0.2024,-0.1704,-0.1676,-0.167,-0.1692,-0.154,-0.1544,-0.1547,-0.1549,-0.1551,-0.1962,-0.1953,-0.1966,-0.1966,-0.1984,-0.197,-0.1932,-0.1965,-0.195,-0.191,-0.1966,-0.1844,-0.181,-0.1553,-0.145,-0.1382,-0.1516,-0.1457,-0.1473,-0.1493,-0.146,-0.1428,-0.1238,-0.124,-0.1242,-0.1244,-0.1245,0,-0.1853,-0.1849,-0.1845,-0.183,-0.179,-0.1846,-0.1833,-0.1764,-0.1686,-0.1678,-0.1615,-0.1407,-0.1265,-0.1245,-0.1067,-0.1025,-0.104,-0.0987,-0.1012,-0.1052,-0.1087,-0.1036,-0.07,-0.0699,-0.0697,-0.0696,0,0,-0.1792,-0.1742,-0.1738,-0.1629,-0.1616,-0.1509,-0.1468,-0.1396,-0.1355,-0.1232,-0.1163,-0.1208,-0.1212,-0.0967,-0.0896,-0.077,-0.0909,-0.0726,-0.1162,-0.1232,-0.1266,-0.1351,-0.1315,0,0,0,0,0]},{"header":{"parameterUnit":"m.s-1","parameterCategory":2,"la1":30.2991,"la2":30.254,"lo1":-89.0895,"lo2":-89.0444,"dy":0.0017,"dx":0.0017,"nx":28,"ny":28,"refTime":"2024-11-30T03:00:00:Z","depth":"2","parameterNumber":3,"parameterNumberName":"V-component_of_CURRENTS"},"data":[0,0,0,0,0,0,0,0,0,0,0,0,0,0,0,0,0,0,0,0,0,0,0,0,0,0,0,0,0,0,0,0,0,0,0,0,0,0,0,0,0,0,0,0,0,0,0,0,0,0,0,0,0,0,0,0,0,0,-0.0474,-0.0474,0,-0.0396,-0.0395,-0.0394,-0.0341,-0.0341,-0.0341,-0.0341,-0.021,-0.0207,-0.0203,0,0,0,0,0,0,0,0,0,0,0,0,0,-0.0513,-0.0513,-0.0474,-0.0473,-0.0473,-0.0396,-0.0395,-0.0393,-0.0342,-0.0341,-0.0341,-0.0341,-0.0211,-0.0207,-0.0203,0,0,0,0,0,0,0,0,0,0,0,0,0,-0.0471,-0.0513,-0.0475,-0.0438,-0.0434,-0.0396,-0.0395,-0.0393,-0.0342,-0.0341,-0.0341,-0.034,-0.0212,-0.0207,-0.0203,-0.018,0,0,-0.0188,-0.0186,0,0,0,0,0,0,0,0,-0.0474,-0.047,-0.0444,-0.0441,-0.0436,-0.0379,-0.036,-0.032,-0.0342,-0.0376,-0.0341,-0.034,-0.0262,-0.0253,-0.0239,-0.0174,-0.0169,-0.0187,-0.0184,-0.0182,-0.0181,0,0,0,0,0,0,0,-0.0477,-0.0472,-0.0442,-0.0444,-0.0438,-0.0403,-0.0397,-0.0352,-0.0321,-0.0373,-0.0369,-0.0362,-0.026,-0.0244,-0.0235,-0.0167,-0.0188,-0.0183,-0.018,-0.0178,-0.0074,-0.0074,0,0,0,0,0,0,-0.0492,-0.0476,-0.0445,-0.044,-0.0455,-0.0403,-0.0396,-0.0397,-0.0322,-0.0311,-0.0362,-0.036,-0.0252,-0.0241,-0.023,-0.02,-0.0182,-0.0178,-0.0175,-0.0074,-0.0074,-0.0074,0,0,0,0,0,0,-0.0494,-0.0491,-0.0448,-0.0456,-0.0448,-0.0403,-0.0404,-0.0395,-0.0381,-0.0315,-0.0302,-0.0357,-0.0251,-0.0237,-0.0195,-0.0194,-0.0176,-0.0171,-0.0073,-0.0074,-0.0074,-0.0138,0,0,0,0,0,0,-0.0495,-0.0492,-0.0499,-0.0458,-0.0449,-0.0431,-0.0404,-0.0394,-0.0378,-0.0374,-0.0306,-0.0294,-0.025,-0.0203,-0.019,-0.0187,-0.0167,-0.0073,-0.0074,-0.0074,-0.0135,-0.014,-0.0144,0,0,0,0,0,-0.0497,-0.0508,-0.0501,-0.0497,-0.046,-0.0431,-0.0423,-0.0388,-0.0378,-0.0374,-0.033,-0.0296,-0.0195,-0.0199,-0.0184,-0.018,-0.0073,-0.0073,-0.0074,-0.0133,-0.0139,-0.0144,0,0,0,0,0,0,-0.0524,-0.0502,-0.0494,-0.0496,-0.047,-0.0423,-0.0417,-0.0396,-0.0359,-0.0356,-0.0295,-0.0279,-0.0244,-0.0204,-0.021,-0.0151,-0.0129,-0.0127,-0.018,-0.0184,-0.0189,-0.0201,-0.0163,0,0,0,0,0,-0.0537,-0.0542,-0.051,-0.0512,-0.0503,-0.0463,-0.0449,-0.0427,-0.0388,-0.0372,-0.0325,-0.0276,-0.0234,-0.0205,-0.0163,-0.0127,-0.0087,-0.0115,-0.012,-0.0124,-0.0124,-0.007,-0.007,-0.0075,-0.0075,-0.0075,0,0,-0.0548,-0.0537,-0.0539,-0.0519,-0.0496,-0.0487,-0.0453,-0.0437,-0.0424,-0.0362,-0.0334,-0.0292,-0.023,-0.0194,-0.0174,-0.0158,-0.0102,-0.0124,-0.0128,-0.0126,-0.007,-0.007,-0.0069,-0.0075,-0.0075,-0.0075,0,0,-0.0571,-0.0564,-0.0576,-0.0559,-0.0535,-0.0509,-0.0509,-0.0468,-0.0446,-0.0415,-0.037,-0.0328,-0.0263,-0.0215,-0.0184,-0.0185,-0.0132,-0.0175,-0.0197,-0.0145,-0.0144,-0.0143,-0.0096,-0.009,-0.017,-0.0171,-0.0171,0,-0.0585,-0.0597,-0.0572,-0.0576,-0.0567,-0.0525,-0.0529,-0.0499,-0.0448,-0.0428,-0.0415,-0.032,-0.0271,-0.0217,-0.0219,-0.0194,-0.016,-0.0184,-0.0151,-0.0149,-0.0147,-0.0098,-0.0091,-0.0174,-0.0173,-0.0173,-0.0173,0,-0.0614,-0.0622,-0.0626,-0.0621,-0.0606,-0.0603,-0.0563,-0.0544,-0.0516,-0.0479,-0.0428,-0.0362,-0.0304,-0.0283,-0.025,-0.0208,-0.0189,-0.017,-0.0141,-0.015,-0.0098,-0.0089,-0.0178,-0.0177,-0.0176,-0.0175,0,0,-0.0646,-0.0649,-0.065,-0.0659,-0.0632,-0.0624,-0.0605,-0.0571,-0.0555,-0.0502,-0.0472,-0.0399,-0.0364,-0.0326,-0.0276,-0.0227,-0.0183,-0.0198,-0.0194,-0.0156,-0.0073,-0.0038,-0.0024,-0.0162,-0.016,-0.0159,-0.0045,0,-0.0676,-0.0706,-0.069,-0.0707,-0.0717,-0.0676,-0.0662,-0.0623,-0.058,-0.0539,-0.0463,-0.0419,-0.0379,-0.0356,-0.03,-0.0212,-0.0162,-0.0216,-0.0064,-0.006,-0.0032,-0.0014,-0.0026,0.0077,-0.0036,-0.0034,-0.0033,0,-0.0709,-0.0726,-0.0757,-0.0758,-0.0757,-0.0757,-0.0727,-0.0707,-0.0634,-0.0599,-0.0537,-0.0478,-0.0397,-0.0368,-0.0219,-0.0257,-0.0175,-0.0105,-0.0099,-0.0037,-0.0008,0.007,0.0098,-0.0017,-0.0019,-0.002,-0.0021,0,-0.0753,-0.0769,-0.08,-0.0802,-0.0794,-0.0796,-0.0785,-0.0729,-0.0709,-0.0639,-0.0614,-0.051,-0.0452,-0.0343,-0.0198,-0.0211,-0.003,-0.0025,0.0087,0.009,0.0126,0.0131,0.0078,0.0077,0.0077,0.0077,0.0076,0,-0.0795,-0.0817,-0.0828,-0.0847,-0.0876,-0.0848,-0.0854,-0.0824,-0.0771,-0.0738,-0.0654,-0.0597,-0.0445,-0.0321,-0.0203,-0.0023,-0.0029,0.0091,0.0127,0.0104,0.0105,0.0058,0.0054,0.0081,0.008,0.0079,0.0079,0,-0.0841,-0.0848,-0.0886,-0.0897,-0.0903,-0.0925,-0.0917,-0.0911,-0.0857,-0.0811,-0.0794,-0.0653,-0.0487,-0.0326,-0.0124,-0.0021,0.0139,0.0202,0.0164,0.0193,0.0223,0.0214,0.0334,0.0336,0.0338,0.0339,0.0341,0,-0.0867,-0.0895,-0.0934,-0.0962,-0.0973,-0.0996,-0.1006,-0.0965,-0.0947,-0.0832,-0.0807,-0.0645,-0.0503,-0.0199,0.0003,0.0222,0.021,0.0332,0.0309,0.0229,0.0251,0.024,0.0229,0.0332,0.0333,0.0334,0.0335,0,-0.0914,-0.0931,-0.0963,-0.1026,-0.1057,-0.1079,-0.1083,-0.1076,-0.1002,-0.0935,-0.0798,-0.0675,-0.0386,-0.0131,0.0139,0.0262,0.0292,0.0359,0.0307,0.0262,0.0235,0.0254,0.0242,0.0343,0.0343,0.0342,0.0342,0.0341,-0.0943,-0.0983,-0.1029,-0.1083,-0.1119,-0.1137,-0.1132,-0.1098,-0.104,-0.0889,-0.0783,-0.0549,-0.0343,0.0073,0.0241,0.0399,0.0392,0.0437,0.0431,0.0425,0.0397,0.0375,0.0504,0.0504,0.0504,0.0504,0.0504,0,-0.0972,-0.1017,-0.1077,-0.1132,-0.1167,-0.1176,-0.1159,-0.1104,-0.1005,-0.0842,-0.0673,-0.0386,-0.0115,0.0096,0.0356,0.0494,0.0466,0.0513,0.0447,0.0439,0.0431,0.0401,0.0511,0.0511,0.0511,0.0511,0,0,-0.099,-0.1053,-0.1086,-0.1149,-0.1183,-0.1183,-0.1157,-0.1048,-0.0911,-0.0705,-0.0515,-0.0307,-0.0065,0.0117,0.0278,0.0407,0.0384,0.0417,0.0402,0.0297,0.0288,0.0384,0.0328,0,0,0,0,0]}],[{"header":{"parameterUnit":"m.s-1","parameterCategory":2,"la1":30.2991,"la2":30.254,"lo1":-89.0895,"lo2":-89.0444,"dy":0.0017,"dx":0.0017,"nx":28,"ny":28,"refTime":"2024-11-30T03:00:00:Z","depth":"4","parameterNumber":2,"parameterNumberName":"U-component_of_CURRENTS"},"data":[0,0,0,0,0,0,0,0,0,0,0,0,0,0,0,0,0,0,0,0,0,0,0,0,0,0,0,0,0,0,0,0,0,0,0,0,0,0,0,0,0,0,0,0,0,0,0,0,0,0,0,0,0,0,0,0,0,0,-0.1674,-0.1675,0,-0.1724,-0.1725,-0.1725,-0.1753,-0.1753,-0.1753,-0.1753,-0.1799,-0.18,-0.1801,0,0,0,0,0,0,0,0,0,0,0,0,0,-0.1609,-0.161,-0.1674,-0.1675,-0.1675,-0.1724,-0.1725,-0.1725,-0.1753,-0.1753,-0.1753,-0.1753,-0.1798,-0.18,-0.1801,0,0,0,0,0,0,0,0,0,0,0,0,0,-0.1645,-0.161,-0.1674,-0.1696,-0.1698,-0.1724,-0.1725,-0.1725,-0.1753,-0.1753,-0.1753,-0.1753,-0.1798,-0.1799,-0.1801,-0.1806,0,0,-0.1806,-0.1807,0,0,0,0,0,0,0,0,-0.1643,-0.1647,-0.1692,-0.1694,-0.1697,-0.1733,-0.1718,-0.1752,-0.1752,-0.1731,-0.1753,-0.1753,-0.1777,-0.178,-0.1788,-0.1808,-0.181,-0.1806,-0.1807,-0.1808,-0.1808,0,0,0,0,0,0,0,-0.164,-0.1645,-0.1693,-0.1693,-0.1696,-0.1705,-0.1711,-0.1725,-0.1751,-0.1733,-0.1735,-0.1742,-0.1778,-0.1786,-0.1789,-0.181,-0.1806,-0.1807,-0.1808,-0.1809,-0.1898,-0.19,0,0,0,0,0,0,-0.1635,-0.1643,-0.1691,-0.1694,-0.1671,-0.1706,-0.1712,-0.1721,-0.1751,-0.1756,-0.1742,-0.1743,-0.1783,-0.1787,-0.1791,-0.1849,-0.1808,-0.1809,-0.181,-0.1897,-0.1899,-0.19,0,0,0,0,0,0,-0.1634,-0.1639,-0.1689,-0.167,-0.1677,-0.1707,-0.1716,-0.1721,-0.1757,-0.1758,-0.1763,-0.1775,-0.1784,-0.1788,-0.1827,-0.1849,-0.181,-0.1811,-0.1895,-0.1897,-0.1899,-0.1932,0,0,0,0,0,0,-0.1632,-0.1638,-0.1657,-0.167,-0.1678,-0.1718,-0.1716,-0.1722,-0.1759,-0.1763,-0.1788,-0.1791,-0.1784,-0.1825,-0.1829,-0.185,-0.1812,-0.1893,-0.1896,-0.1899,-0.1929,-0.1935,-0.194,0,0,0,0,0,-0.1629,-0.1645,-0.1658,-0.1664,-0.1698,-0.1719,-0.1725,-0.1745,-0.1761,-0.1778,-0.18,-0.1791,-0.1845,-0.1828,-0.1832,-0.1854,-0.1892,-0.1895,-0.1899,-0.1927,-0.1934,-0.194,0,0,0,0,0,0,-0.1628,-0.165,-0.1664,-0.1687,-0.171,-0.1724,-0.1747,-0.1764,-0.1796,-0.1808,-0.1811,-0.1815,-0.1855,-0.1856,-0.1837,-0.1889,-0.1867,-0.1871,-0.1887,-0.1894,-0.1899,-0.1884,-0.1814,0,0,0,0,0,-0.1636,-0.1654,-0.1676,-0.1699,-0.1713,-0.1738,-0.1756,-0.1772,-0.1795,-0.1811,-0.183,-0.1852,-0.1867,-0.1883,-0.1896,-0.1928,-0.1905,-0.1946,-0.1952,-0.1956,-0.1948,-0.1935,-0.1938,-0.1911,-0.1911,-0.1911,0,0,-0.1643,-0.1657,-0.167,-0.17,-0.1721,-0.1745,-0.175,-0.1785,-0.1809,-0.1811,-0.186,-0.1873,-0.1881,-0.1912,-0.193,-0.1919,-0.1953,-0.196,-0.1964,-0.1953,-0.1939,-0.1941,-0.1943,-0.1913,-0.1913,-0.1912,0,0,-0.1651,-0.168,-0.1695,-0.1718,-0.1754,-0.1769,-0.1786,-0.182,-0.1844,-0.1889,-0.1893,-0.1918,-0.1958,-0.1956,-0.1961,-0.2007,-0.1981,-0.2025,-0.2041,-0.2029,-0.203,-0.2031,-0.2003,-0.2002,-0.2029,-0.2029,-0.2029,0,-0.1661,-0.1682,-0.1704,-0.1726,-0.1749,-0.1783,-0.1809,-0.1835,-0.188,-0.1897,-0.1911,-0.196,-0.197,-0.1988,-0.2006,-0.2016,-0.2004,-0.2013,-0.2033,-0.2034,-0.2034,-0.2005,-0.2003,-0.2031,-0.203,-0.203,-0.203,0,-0.167,-0.1703,-0.1716,-0.1753,-0.1781,-0.1811,-0.1846,-0.1884,-0.1922,-0.1941,-0.1984,-0.1998,-0.202,-0.2035,-0.2037,-0.2052,-0.204,-0.2038,-0.201,-0.2038,-0.2007,-0.2004,-0.2034,-0.2033,-0.2032,-0.2032,0,0,-0.1649,-0.1711,-0.172,-0.1746,-0.1802,-0.1822,-0.187,-0.1909,-0.1939,-0.1983,-0.2013,-0.2044,-0.2053,-0.2059,-0.2066,-0.2063,-0.2058,-0.206,-0.2058,-0.202,-0.2024,-0.1893,-0.1877,-0.2065,-0.2065,-0.2065,-0.2,0,-0.1653,-0.1696,-0.1728,-0.1779,-0.1805,-0.1854,-0.1891,-0.1934,-0.1974,-0.2012,-0.2029,-0.2061,-0.2062,-0.2081,-0.2077,-0.207,-0.2051,-0.2074,-0.2013,-0.201,-0.188,-0.1869,-0.2064,-0.1997,-0.1997,-0.1996,-0.1996,0,-0.1643,-0.1678,-0.1728,-0.1793,-0.1811,-0.1849,-0.1913,-0.195,-0.2002,-0.2033,-0.2061,-0.2078,-0.209,-0.2088,-0.2062,-0.2082,-0.2051,-0.2035,-0.2032,-0.1891,-0.1872,-0.1965,-0.1989,-0.1989,-0.199,-0.199,-0.1991,0,-0.16,-0.1673,-0.1715,-0.174,-0.1819,-0.1856,-0.19,-0.1958,-0.1989,-0.2046,-0.207,-0.2087,-0.2098,-0.2076,-0.2045,-0.2061,-0.2001,-0.2015,-0.1857,-0.1848,-0.1972,-0.1972,-0.1971,-0.1972,-0.1972,-0.1972,-0.1972,0,-0.1572,-0.1609,-0.1707,-0.1728,-0.178,-0.1843,-0.1896,-0.1941,-0.2002,-0.2017,-0.2075,-0.2073,-0.2097,-0.207,-0.2041,-0.1924,-0.199,-0.184,-0.1815,-0.1989,-0.1991,-0.1969,-0.1969,-0.1969,-0.197,-0.197,-0.1971,0,-0.1508,-0.1575,-0.1629,-0.1728,-0.1761,-0.1798,-0.189,-0.1912,-0.1986,-0.2008,-0.2026,-0.2064,-0.2016,-0.2008,-0.1961,-0.1892,-0.1816,-0.1754,-0.1925,-0.1915,-0.1674,-0.1678,-0.1571,-0.1565,-0.1561,-0.1557,-0.1554,0,-0.1473,-0.1497,-0.1615,-0.1646,-0.1696,-0.1765,-0.1798,-0.1891,-0.1907,-0.1972,-0.1959,-0.1955,-0.1954,-0.1769,-0.1791,-0.1699,-0.1677,-0.1631,-0.166,-0.1641,-0.163,-0.1641,-0.165,-0.1547,-0.1546,-0.1544,-0.1543,0,-0.1401,-0.1461,-0.1504,-0.1571,-0.1623,-0.1667,-0.1724,-0.1725,-0.1803,-0.1895,-0.1821,-0.1775,-0.171,-0.1659,-0.1589,-0.1534,-0.1665,-0.1584,-0.1593,-0.162,-0.1611,-0.1607,-0.1621,-0.1528,-0.153,-0.1531,-0.1532,0,-0.1345,-0.136,-0.1425,-0.1465,-0.1531,-0.1532,-0.1582,-0.158,-0.1605,-0.1681,-0.1648,-0.1642,-0.1682,-0.157,-0.1514,-0.144,-0.1422,-0.138,-0.14,-0.1418,-0.1398,-0.1366,-0.1164,0,0,0,0,0,-0.1277,-0.1275,-0.1308,-0.134,-0.1399,-0.1429,-0.1507,-0.1556,-0.164,-0.1537,-0.1586,-0.1513,-0.1418,-0.1426,-0.1312,-0.1449,-0.1436,-0.1314,-0.1403,-0.1441,-0.1459,-0.1449,0,0,0,0,0,0,-0.1229,-0.1258,-0.1263,-0.1219,-0.1215,-0.1253,-0.1296,-0.1355,-0.1308,-0.1399,-0.1348,-0.1418,-0.1344,-0.1441,-0.1277,-0.1277,-0.13,-0.1326,-0.1322,-0.1431,-0.1447,-0.1462,-0.1458,0,0,0,0,0]},{"header":{"parameterUnit":"m.s-1","parameterCategory":2,"la1":30.2991,"la2":30.254,"lo1":-89.0895,"lo2":-89.0444,"dy":0.0017,"dx":0.0017,"nx":28,"ny":28,"refTime":"2024-11-30T03:00:00:Z","depth":"4","parameterNumber":3,"parameterNumberName":"V-component_of_CURRENTS"},"data":[0,0,0,0,0,0,0,0,0,0,0,0,0,0,0,0,0,0,0,0,0,0,0,0,0,0,0,0,0,0,0,0,0,0,0,0,0,0,0,0,0,0,0,0,0,0,0,0,0,0,0,0,0,0,0,0,0,0,-0.0296,-0.0296,0,-0.0247,-0.0247,-0.0246,-0.0211,-0.021,-0.021,-0.021,-0.0117,-0.0114,-0.0112,0,0,0,0,0,0,0,0,0,0,0,0,0,-0.0313,-0.0313,-0.0297,-0.0296,-0.0295,-0.0247,-0.0246,-0.0246,-0.0211,-0.021,-0.021,-0.021,-0.0117,-0.0115,-0.0112,0,0,0,0,0,0,0,0,0,0,0,0,0,-0.0288,-0.0313,-0.0297,-0.0273,-0.027,-0.0247,-0.0246,-0.0246,-0.0211,-0.021,-0.021,-0.021,-0.0118,-0.0115,-0.0111,-0.0097,0,0,-0.0101,-0.01,0,0,0,0,0,0,0,0,-0.029,-0.0288,-0.0277,-0.0274,-0.0271,-0.0235,-0.0218,-0.0194,-0.0211,-0.0232,-0.021,-0.021,-0.0153,-0.0147,-0.0138,-0.0092,-0.0088,-0.0101,-0.0099,-0.0097,-0.0096,0,0,0,0,0,0,0,-0.0292,-0.0289,-0.0276,-0.0276,-0.0273,-0.0248,-0.0245,-0.0213,-0.0194,-0.023,-0.0228,-0.0224,-0.0151,-0.0141,-0.0135,-0.0087,-0.0101,-0.0098,-0.0096,-0.0094,-0.0024,-0.0024,0,0,0,0,0,0,-0.0302,-0.0291,-0.0278,-0.0275,-0.0281,-0.0248,-0.0244,-0.0247,-0.0195,-0.0187,-0.0224,-0.0222,-0.0147,-0.0139,-0.0132,-0.0109,-0.0097,-0.0094,-0.0092,-0.0024,-0.0024,-0.0024,0,0,0,0,0,0,-0.0303,-0.0302,-0.028,-0.0282,-0.0277,-0.0249,-0.0251,-0.0246,-0.024,-0.0191,-0.0182,-0.0225,-0.0146,-0.0136,-0.0109,-0.0105,-0.0092,-0.0089,-0.0023,-0.0024,-0.0024,-0.0064,0,0,0,0,0,0,-0.0304,-0.0302,-0.0312,-0.0283,-0.0278,-0.0272,-0.0252,-0.0245,-0.0238,-0.0235,-0.0188,-0.0179,-0.0145,-0.0114,-0.0105,-0.01,-0.0087,-0.0023,-0.0023,-0.0024,-0.0063,-0.0066,-0.0069,0,0,0,0,0,-0.0304,-0.0315,-0.0313,-0.0311,-0.0291,-0.0272,-0.0268,-0.0245,-0.0239,-0.0238,-0.0207,-0.018,-0.011,-0.0112,-0.0101,-0.0095,-0.0023,-0.0023,-0.0024,-0.0061,-0.0065,-0.0069,0,0,0,0,0,0,-0.0324,-0.0312,-0.0308,-0.0315,-0.0299,-0.0267,-0.0266,-0.0252,-0.0229,-0.0228,-0.0182,-0.0171,-0.0147,-0.0118,-0.0121,-0.0076,-0.0062,-0.006,-0.0094,-0.0098,-0.01,-0.0102,-0.0084,0,0,0,0,0,-0.0335,-0.0344,-0.0323,-0.0329,-0.0325,-0.0299,-0.0291,-0.0277,-0.0251,-0.0241,-0.0208,-0.0172,-0.014,-0.0118,-0.0089,-0.0062,-0.0027,-0.0052,-0.0055,-0.0058,-0.0053,0.0007,0.001,-0.0025,-0.0025,-0.0025,0,0,-0.0345,-0.034,-0.0344,-0.0335,-0.0322,-0.0317,-0.0293,-0.0286,-0.0277,-0.0233,-0.0215,-0.0185,-0.0138,-0.011,-0.0096,-0.0084,-0.0033,-0.0058,-0.0061,-0.0054,0.0007,0.001,0.0014,-0.0026,-0.0025,-0.0025,0,0,-0.0363,-0.0365,-0.0376,-0.0367,-0.0355,-0.0337,-0.0339,-0.0313,-0.0297,-0.0279,-0.0244,-0.021,-0.0168,-0.0124,-0.0098,-0.0098,-0.0056,-0.0096,-0.0102,-0.0045,-0.0042,-0.0038,-0.0005,0.0002,-0.009,-0.0091,-0.0091,0,-0.0376,-0.0387,-0.0375,-0.038,-0.0375,-0.035,-0.0353,-0.0333,-0.0301,-0.0282,-0.028,-0.0204,-0.0169,-0.0113,-0.0117,-0.0102,-0.0075,-0.0093,-0.0048,-0.0044,-0.0039,-0.0006,0.0003,-0.0093,-0.0092,-0.0092,-0.0092,0,-0.0397,-0.0407,-0.0412,-0.0412,-0.0404,-0.0405,-0.0377,-0.0365,-0.0348,-0.0319,-0.0275,-0.0225,-0.0176,-0.0161,-0.014,-0.0089,-0.0084,-0.0065,-0.0039,-0.0038,-0.0003,0.0006,-0.0095,-0.0095,-0.0094,-0.0094,0,0,-0.0417,-0.0427,-0.043,-0.0437,-0.0424,-0.0418,-0.0404,-0.0375,-0.0358,-0.0322,-0.0289,-0.0232,-0.0203,-0.0172,-0.0134,-0.0083,-0.0036,-0.0067,-0.0063,-0.0035,0.0072,0.0053,0.0062,-0.0011,-0.0009,-0.0008,0.0077,0,-0.0437,-0.0463,-0.0454,-0.0469,-0.0478,-0.045,-0.0437,-0.0406,-0.0374,-0.0337,-0.027,-0.0232,-0.0206,-0.0187,-0.0131,-0.0062,-0.0011,-0.0062,0.0067,0.0071,0.0055,0.0073,-0.0002,0.0084,0.0087,0.0088,0.0089,0,-0.0457,-0.0473,-0.05,-0.05,-0.05,-0.0504,-0.0477,-0.046,-0.0396,-0.0368,-0.0309,-0.0261,-0.0185,-0.0168,-0.0034,-0.0072,-0.0006,0.0051,0.0056,0.0063,0.0071,0.0088,0.0107,0.0106,0.0104,0.0103,0.0102,0,-0.0483,-0.0499,-0.0526,-0.0529,-0.0526,-0.0529,-0.0522,-0.0475,-0.0456,-0.039,-0.037,-0.0268,-0.0225,-0.0121,-0.0016,-0.0024,0.0128,0.0138,0.0189,0.0188,0.0197,0.0192,0.0241,0.0241,0.0241,0.0241,0.0241,0,-0.0503,-0.0523,-0.0548,-0.0563,-0.0588,-0.0568,-0.0573,-0.0545,-0.05,-0.0471,-0.0395,-0.0348,-0.0211,-0.0112,-0.0014,0.011,0.0134,0.0194,0.0216,0.0174,0.0166,0.0202,0.0197,0.0244,0.0243,0.0243,0.0242,0,-0.0525,-0.0541,-0.0576,-0.0596,-0.0607,-0.0626,-0.0628,-0.062,-0.0576,-0.0537,-0.0521,-0.0403,-0.0274,-0.0139,0.0035,0.0104,0.0231,0.0272,0.0202,0.0218,0.025,0.0242,0.0338,0.0338,0.0339,0.0339,0.0339,0,-0.0536,-0.0561,-0.0614,-0.0644,-0.0662,-0.0687,-0.0701,-0.0668,-0.0651,-0.0564,-0.0542,-0.042,-0.0329,-0.0094,0.004,0.0228,0.0253,0.0307,0.0294,0.0252,0.0265,0.0255,0.0247,0.0339,0.0339,0.0339,0.0339,0,-0.0557,-0.0586,-0.0617,-0.0687,-0.0725,-0.0749,-0.0762,-0.0751,-0.0693,-0.0663,-0.0538,-0.0409,-0.0263,-0.0087,0.0054,0.0189,0.0265,0.0309,0.031,0.0298,0.0255,0.0265,0.0256,0.034,0.034,0.034,0.034,0,-0.0573,-0.0607,-0.0661,-0.0713,-0.0766,-0.0787,-0.079,-0.0749,-0.0718,-0.0612,-0.0571,-0.0403,-0.03,-0.0106,0.0027,0.0152,0.0183,0.0216,0.0222,0.0223,0.0159,0.0085,0.0146,0,0,0,0,0,-0.0581,-0.0621,-0.0679,-0.0734,-0.0785,-0.0809,-0.0814,-0.0799,-0.0747,-0.0661,-0.0607,-0.0461,-0.0241,-0.0142,-0.0018,0.0011,0.0183,0.0157,0.0219,0.0344,0.0343,0.0285,0,0,0,0,0,0,-0.0589,-0.0647,-0.0677,-0.0735,-0.0772,-0.0815,-0.0817,-0.0783,-0.0717,-0.0651,-0.0527,-0.0449,-0.0235,-0.0312,-0.002,0.0017,0.0069,0.0264,0.0266,0.0344,0.0344,0.0343,0.0284,0,0,0,0,0]}]]